{"data":{"norad_id":68646,"intl_designator":"2026-075L","name":"QIANFAN-119","alt_names":[],"object_type":"PAYLOAD","status":"ACTIVE","operator":null,"country":"PRC","launch_date":"2026-04-07","launch_site_code":"WSC","launch_vehicle":null,"mission":null,"orbit_class":"UNKNOWN","rcs_meters":null,"size_class":null,"mass_kg":null,"dimensions":null,"purposes":[],"wikipedia_slug":null,"has_3d_model":false,"image_url":null,"decayed_at":null,"tle_current":{"epoch":"2026-09-19T21:26:20.469408Z","epoch_age_seconds":115670,"freshness":"FRESH","line1":"1 68646U 26075L   26262.89329247  .00000043  00000+0  48032-4 0  9999","line2":"2 68646  88.9866 311.3396 0001976  87.1084 273.0294 13.51020465 22596","mean_motion":13.51020465,"eccentricity":0.0001976,"inclination_deg":88.9866,"raan_deg":311.3396,"arg_perigee_deg":87.1084,"mean_anomaly_deg":273.0294,"bstar":4.8032e-5,"rev_number":2259,"period_min":106.58609823501,"perigee_km":1067.0349273419,"apogee_km":1069.9778408073,"semimajor_km":7446.6433840746,"source":"CELESTRAK","updated_at":"2026-09-20T09:00:24.370625Z"}}}